Regional Weather Roundup
Issued by NWS

Home | Current Version | Previous Version | Graphics & Text | Print | Product List | Glossary On
Versions: 1 2 3 4 5 6 7 8 9 10 11 12 13 14 15 16 17 18 19 20 21 22 23 24 25 26 27 28 29 30 31 32 33 34 35 36 37 38 39 40 41 42 43 44 45 46 47 48 49 50
000
ASUS43 KLSX 022210
RWRMO

WEATHER SUMMARY FOR MISSOURI
NATIONAL WEATHER SERVICE SPRINGFIELD MO
400 PM CST FRI DEC 02 2016

NOTE: "FAIR" INDICATES FEW OR NO CLOUDS BELOW 12,000 FEET WITH NO
       SIGNIFICANT WEATHER AND/OR OBSTRUCTIONS TO VISIBILITY.
       CURRENT SKY AND/OR WEATHER CONDITIONS ARE NOT AVAILABLE FOR
       CHILLICOTHE AND FARMINGTON.

MOZ001>031-035>038-043-044-053-054-022300-
...NORTHERN AND WESTERN MISSOURI...

CITY           SKY/WX    TMP DP  RH WIND       PRES   REMARKS
KANSAS CTY INT MOCLDY    48  27  44 N3        30.27F
KANSAS C DTWN  CLEAR     51  27  39 CALM      30.27S
LEE`S SUMMIT   CLEAR     49  26  41 NE3       30.28R
ST JOSEPH      CLEAR     45  29  53 NW7       30.28F
CHILLICOTHE      N/A     46  28  49 VRB3      30.30R
KIRKSVILLE     CLEAR     45  29  53 CALM      30.28R

$$
MOZ066>068-077>081-088>096-101>105-022300-
...SOUTHWEST MISSOURI...

CITY           SKY/WX    TMP DP  RH WIND       PRES   REMARKS
SPRINGFIELD    CLEAR     54  24  31 NE9       30.21F
JOPLIN         MOCLDY    54  28  36 E7        30.21S
BRANSON        CLOUDY    54  28  37 E6        30.22F

$$
MOZ032>034-039>042-045>050-055>058-069>072-022300-
...CENTRAL MISSOURI...

CITY           SKY/WX    TMP DP  RH WIND       PRES   REMARKS
COLUMBIA       CLEAR     48  26  42 NW8       30.28R
JEFFERSON CITY CLEAR     48  25  40 NW3       30.29R
ROLLA          CLEAR     48  28  46 N5        30.26R
SEDALIA        CLEAR     48  26  42 NW5       30.29R
WHITEMAN AFB   CLEAR     48  28  46 N5        30.27R
WARRENSBURG    CLEAR     48  27  43 CALM      30.28S
OSAGE BEACH    PTCLDY    51  25  36 N3        30.28S

$$
MOZ051-052-059>065-022300-
...EAST CENTRAL MISSOURI...

CITY           SKY/WX    TMP DP  RH WIND       PRES   REMARKS
ST LOUIS INTL  PTCLDY    47  28  47 NW6       30.29R
SPIRIT OF STL  PTCLDY    48  30  49 NW7       30.29R
ST CHARLES     CLEAR     47  30  51 W5        30.29R

$$
MOZ072>076-082>087-097>100-106>115-022300-
...SOUTH CENTRAL AND SOUTHEAST MISSOURI...

CITY           SKY/WX    TMP DP  RH WIND       PRES   REMARKS
CAPE GIRARDEAU CLEAR     51  30  44 CALM      30.29R
FARMINGTON     CLEAR     49  28  44 CALM      30.28R
POPLAR BLUFF   CLEAR     51  33  50 S5        30.28R
WEST PLAINS    CLEAR     52  29  41 CALM      30.26R

$$




USA.gov is the U.S. government's official web portal to all federal, state and local government web resources and services.